FW0786 Weather Reports


time (UTC)temp
C
wind
direction
speed
KPH
gust
KPH
rain 1hr
cm
rain 24hr
cm
rain mn
cm
humidity
%
barometer
mb
20260507232405 10 280 4.8 12.9 0.00 0.00 0.00 40 1010.5
20260507231904 11 323 4.8 14.5 0.00 0.00 0.00 40 1010.4
20260507231404 11 273 6.4 14.5 0.00 0.00 0.00 39 1010.4
20260507230904 11 269 6.4 14.5 0.00 0.00 0.00 39 1010.4
20260507230404 11 257 4.8 14.5 0.00 0.00 0.00 38 1010.4
20260507225905 11 355 6.4 16.1 0.00 0.00 0.00 38 1010.3
20260507225405 11 306 6.4 17.7 0.00 0.00 0.00 37 1010.3
20260507224406 12 28 4.8 12.9 0.00 0.00 0.00 37 1010.2
20260507223905 12 291 6.4 22.5 0.00 0.00 0.00 37 1010.2
20260507223404 12 296 6.4 22.5 0.00 0.00 0.00 37 1010.3
20260507222905 12 320 6.4 20.9 0.00 0.00 0.00 38 1010.2
20260507222406 11 319 8.0 20.9 0.00 0.00 0.00 38 1010.2
20260507221904 11 263 8.0 19.3 0.00 0.00 0.00 37 1010.2
20260507221405 12 355 6.4 17.7 0.00 0.00 0.00 37 1010.3
20260507220904 12 235 8.0 16.1 0.00 0.00 0.00 38 1010.2
20260507220405 12 355 6.4 16.1 0.00 0.00 0.00 38 1010.2
20260507215905 11 231 6.4 24.1 0.00 0.00 0.00 39 1010.1
20260507215404 11 306 9.7 24.1 0.00 0.00 0.00 39 1010.1
20260507214905 11 5 9.7 22.5 0.00 0.00 0.00 39 1009.9
20260507214406 12 5 9.7 22.5 0.00 0.00 0.00 37 1010.0
20260507213907 12 309 9.7 22.5 0.00 0.00 0.00 38 1009.9
20260507213405 12 5 11.3 24.1 0.00 0.00 0.00 40 1009.8
20260507212905 12 338 9.7 24.1 0.00 0.00 0.00 39 1009.7
20260507212405 12 196 8.0 24.1 0.00 0.00 0.00 39 1009.7
20260507211906 12 267 8.0 24.1 0.00 0.00 0.00 38 1009.7
20260507210906 12 70 8.0 19.3 0.00 0.00 0.00 38 1009.5
20260507210405 12 308 8.0 20.9 0.00 0.00 0.00 39 1009.6
20260507205904 11 338 8.0 20.9 0.00 0.00 0.00 39 1009.6
20260507205404 12 5 8.0 22.5 0.00 0.00 0.00 38 1009.6
20260507204905 12 288 9.7 27.4 0.00 0.00 0.00 38 1009.6
20260507204404 12 277 9.7 27.4 0.00 0.00 0.00 37 1009.6
20260507203905 12 346 6.4 16.1 0.00 0.00 0.00 37 1009.4
20260507203406 12 284 8.0 19.3 0.00 0.00 0.00 38 1009.4
20260507202906 12 287 8.0 22.5 0.00 0.00 0.00 37 1009.4
20260507201905 12 341 8.0 24.1 0.00 0.00 0.00 37 1009.2
20260507201405 13 215 8.0 20.9 0.00 0.00 0.00 37 1009.2
20260507200906 13 56 8.0 24.1 0.00 0.00 0.00 37 1009.3
20260507195904 13 246 8.0 20.9 0.00 0.00 0.00 37 1009.3
20260507194906 12 269 8.0 25.7 0.00 0.00 0.00 38 1009.2
20260507193905 12 9 8.0 22.5 0.00 0.00 0.00 38 1009.3
20260507193404 12 0 8.0 19.3 0.00 0.00 0.00 37 1009.3
20260507192404 12 335 6.4 17.7 0.00 0.00 0.00 37 1009.4
20260507191904 13 334 6.4 20.9 0.00 0.00 0.00 38 1009.4
20260507190405 13 5 8.0 22.5 0.00 0.00 0.00 38 1009.5
20260507185905 13 355 6.4 22.5 0.00 0.00 0.00 36 1009.6
20260507184902 13 355 8.0 24.1 0.00 0.00 0.00 34 1009.6
20260507184403 13 221 8.0 29.0 0.00 0.00 0.00 35 1009.5
20260507183403 13 292 6.4 20.9 0.00 0.00 0.00 35 1009.6
20260507182402 13 298 9.7 30.6 0.00 0.00 0.00 36 1009.6
20260507181402 12 314 9.7 30.6 0.00 0.00 0.00 36 1009.6
20260507175901 12 228 8.0 19.3 0.00 0.00 0.00 40 1009.7
20260507175401 12 328 9.7 27.4 0.00 0.00 0.00 36 1009.7
20260507173900 13 273 6.4 24.1 0.00 0.00 0.00 37 1009.9
20260507173400 13 355 8.0 17.7 0.00 0.00 0.00 38 1009.7
20260507172900 13 317 8.0 16.1 0.00 0.00 0.00 37 1009.8
20260507172400 13 323 8.0 24.1 0.00 0.00 0.00 37 1009.7
20260507171900 13 276 11.3 25.7 0.00 0.00 0.00 37 1009.8
20260507171359 13 298 11.3 25.7 0.00 0.00 0.00 37 1010.0
20260507170900 13 11 9.7 24.1 0.00 0.00 0.00 37 1010.2
20260507170400 12 222 9.7 27.4 0.00 0.00 0.00 39 1010.2
20260507165859 12 349 8.0 27.4 0.00 0.00 0.00 37 1010.2
20260507165401 12 254 8.0 19.3 0.00 0.00 0.00 41 1010.2
20260507164900 12 312 11.3 29.0 0.00 0.00 0.00 40 1010.2
20260507164401 12 330 12.9 29.0 0.00 0.00 0.00 40 1010.3
20260507163900 12 238 14.5 29.0 0.00 0.00 0.00 38 1010.4
20260507163401 11 257 12.9 30.6 0.00 0.00 0.00 38 1010.7
20260507162859 12 350 9.7 30.6 0.00 0.00 0.00 40 1010.7
20260507162401 12 218 8.0 19.3 0.00 0.00 0.00 41 1010.5
20260507161858 12 261 6.4 20.9 0.00 0.00 0.00 45 1010.6
20260507161358 12 268 8.0 20.9 0.00 0.00 0.00 42 1010.7
20260507160359 11 277 8.0 20.9 0.00 0.00 0.00 45 1010.5
20260507155858 11 350 8.0 20.9 0.00 0.00 0.00 46 1010.6
20260507155357 11 42 9.7 19.3 0.00 0.00 0.00 45 1010.6
20260507154856 11 5 11.3 19.3 0.00 0.03 0.00 46 1011.0
20260507154356 11 346 9.7 22.5 0.00 0.03 0.00 45 1011.0
20260507153856 11 343 9.7 22.5 0.00 0.03 0.00 46 1010.9
20260507153355 11 200 9.7 22.5 0.00 0.05 0.00 49 1010.9
20260507152354 11 281 8.0 27.4 0.00 0.05 0.00 49 1011.0
20260507151354 10 239 11.3 22.5 0.00 0.05 0.00 53 1011.0
20260507150851 11 338 8.0 22.5 0.00 0.05 0.00 49 1011.2
20260507150352 11 355 6.4 20.9 0.00 0.05 0.00 52 1011.0
20260507145349 10 292 6.4 19.3 0.00 0.05 0.00 57 1010.7
20260507144849 10 337 6.4 16.1 0.00 0.05 0.00 56 1011.0
20260507143850 10 323 4.8 20.9 0.00 0.05 0.00 62 1011.0
20260507143349 10 21 4.8 20.9 0.00 0.05 0.00 60 1011.1
20260507142850 10 233 4.8 12.9 0.00 0.05 0.00 63 1011.3
20260507142349 10 350 4.8 12.9 0.00 0.05 0.00 62 1011.2
20260507141849 10 239 4.8 12.9 0.00 0.05 0.00 67 1011.4
20260507140850 10 265 3.2 12.9 0.00 0.05 0.00 68 1011.3
20260507140349 10 296 4.8 16.1 0.00 0.05 0.00 69 1011.3
20260507135849 9 355 4.8 16.1 0.00 0.05 0.00 70 1011.5
20260507134850 8 274 4.8 11.3 0.00 0.05 0.00 74 1011.4
20260507134350 8 163 4.8 12.9 0.00 0.05 0.00 76 1011.3
20260507133850 8 275 4.8 12.9 0.00 0.05 0.00 80 1011.4
20260507133349 8 338 4.8 14.5 0.00 0.05 0.00 84 1011.3
20260507131850 7 351 3.2 11.3 0.00 0.08 0.00 93 1011.3
20260507130849 6 84 3.2 9.7 0.00 0.10 0.00 93 1011.3
20260507130349 6 198 3.2 8.0 0.00 0.10 0.00 95 1011.3
20260507125849 6 41 3.2 8.0 0.00 0.10 0.00 96 1011.5
20260507125349 6 320 3.2 6.4 0.00 0.10 0.00 95 1011.6
20260507124847 6 319 1.6 6.4 0.00 0.10 0.00 95 1011.5
20260507124347 6 300 1.6 4.8 0.00 0.10 0.00 95 1011.4
20260507123847 6 300 1.6 4.8 0.00 0.10 0.00 95 1011.2
20260507123347 6 300 1.6 4.8 0.00 0.10 0.00 96 1011.2
20260507122844 6 300 1.6 4.8 0.00 0.10 0.00 96 1011.1
20260507122343 6 300 1.6 4.8 0.00 0.10 0.00 95 1011.3
20260507121845 6 334 1.6 6.4 0.00 0.10 0.00 95 1011.3
20260507121344 6 335 3.2 8.0 0.00 0.10 0.00 95 1011.3
20260507120843 6 315 3.2 8.0 0.00 0.10 0.00 95 1011.3
20260507120343 5 307 1.6 4.8 0.00 0.10 0.00 95 1011.3
20260507115343 5 307 1.6 3.2 0.00 0.10 0.00 95 1011.3
20260507114843 5 307 1.6 4.8 0.00 0.10 0.00 95 1011.1
20260507114344 5 307 1.6 4.8 0.00 0.10 0.00 95 1011.1
20260507113341 5 307 0.0 1.6 0.00 0.10 0.00 95 1010.9
20260507112841 5 307 0.0 0.0 0.00 0.10 0.00 95 1011.0
20260507112342 5 307 0.0 1.6 0.00 0.10 0.00 95 1011.0
20260507111339 5 307 0.0 1.6 0.00 0.10 0.00 95 1011.0
20260507110339 5 307 0.0 3.2 0.00 0.10 0.00 95 1011.1
20260507105838 5 307 0.0 3.2 0.00 0.10 0.00 95 1011.2
20260507105339 5 307 0.0 1.6 0.00 0.10 0.00 95 1011.0
20260507104839 5 307 0.0 1.6 0.00 0.10 0.00 95 1011.0
20260507103339 5 307 0.0 1.6 0.00 0.10 0.00 95 1010.9
20260507102839 5 307 0.0 1.6 0.00 0.10 0.00 95 1010.9
20260507102338 5 307 0.0 3.2 0.00 0.10 0.00 95 1010.9
20260507101837 5 307 0.0 3.2 0.00 0.10 0.00 95 1010.9
20260507101337 5 307 0.0 3.2 0.00 0.10 0.00 95 1010.7
20260507100838 5 307 1.6 1.6 0.00 0.10 0.00 95 1010.7
20260507100337 5 307 0.0 1.6 0.00 0.10 0.00 95 1010.6
20260507095838 5 307 1.6 4.8 0.00 0.10 0.00 95 1010.6
20260507095337 5 307 1.6 4.8 0.00 0.10 0.00 95 1010.5
20260507094837 5 307 0.0 4.8 0.00 0.10 0.00 95 1010.6
20260507094337 5 307 0.0 1.6 0.00 0.10 0.00 95 1010.5
20260507093837 5 307 0.0 3.2 0.00 0.10 0.00 95 1010.6
20260507093336 5 307 0.0 3.2 0.00 0.10 0.00 95 1010.9
20260507092834 5 307 0.0 3.2 0.00 0.10 0.00 95 1011.1
20260507092336 5 307 1.6 3.2 0.00 0.10 0.00 95 1011.0
20260507091835 5 307 0.0 3.2 0.00 0.10 0.00 95 1010.9
20260507091335 5 307 0.0 1.6 0.00 0.10 0.00 95 1010.7
20260507090833 5 307 0.0 1.6 0.00 0.10 0.00 95 1010.9
20260507090331 5 307 0.0 1.6 0.00 0.10 0.00 95 1010.9
20260507085829 5 307 0.0 3.2 0.00 0.10 0.00 95 1010.7
20260507084829 5 307 1.6 3.2 0.00 0.10 0.00 95 1010.7
20260507084327 5 307 1.6 3.2 0.00 0.10 0.00 95 1010.9
20260507083827 5 307 0.0 1.6 0.00 0.10 0.00 95 1011.0
20260507083327 5 307 0.0 3.2 0.00 0.10 0.00 95 1011.1
20260507082827 5 307 1.6 3.2 0.00 0.10 0.00 95 1011.1
20260507082327 5 307 1.6 3.2 0.00 0.10 0.00 95 1011.1
20260507081827 5 307 1.6 4.8 0.00 0.10 0.00 95 1011.2
20260507081328 5 307 0.0 4.8 0.00 0.10 0.00 95 1011.1
20260507075825 5 307 0.0 0.0 0.00 0.10 0.00 95 1011.2
20260507074822 5 307 0.0 1.6 0.00 0.10 0.00 95 1011.2
20260507074322 5 307 0.0 1.6 0.00 0.10 0.00 95 1011.0
20260507073822 5 307 0.0 0.0 0.00 0.10 0.00 95 1010.9
20260507073321 5 307 0.0 0.0 0.00 0.10 0.00 95 1010.9
20260507072821 5 307 0.0 0.0 0.00 0.10 0.00 95 1010.9
20260507072320 5 307 0.0 1.6 0.00 0.10 0.00 95 1010.9
20260507071820 5 307 0.0 1.6 0.00 0.10 0.00 95 1010.9
20260507071321 5 307 0.0 1.6 0.00 0.10 0.00 95 1010.7
20260507070320 5 307 0.0 1.6 0.00 0.10 0.00 95 1010.5
20260507065820 5 307 0.0 1.6 0.00 0.10 0.00 95 1010.5
20260507064821 5 307 0.0 0.0 0.00 0.10 0.00 95 1010.7
20260507064321 5 307 0.0 0.0 0.00 0.10 0.00 95 1010.6
20260507063322 5 307 0.0 1.6 0.00 0.10 0.00 95 1010.6
20260507062821 5 307 0.0 3.2 0.00 0.10 0.00 95 1010.6
20260507062322 5 307 0.0 3.2 0.00 0.10 0.00 95 1010.7
20260507061821 5 307 0.0 3.2 0.00 0.10 0.00 95 1010.7
20260507061321 5 307 1.6 4.8 0.00 0.10 0.00 95 1010.9
20260507060319 5 307 0.0 3.2 0.00 0.10 0.00 94 1011.1
20260507055818 5 307 0.0 1.6 0.00 0.10 0.00 94 1010.7
20260507055318 5 307 0.0 3.2 0.00 0.10 0.00 94 1010.9
20260507054816 5 307 1.6 3.2 0.00 0.10 0.00 94 1011.0
20260507054316 5 307 1.6 3.2 0.00 0.10 0.00 94 1011.1
20260507053816 5 307 0.0 3.2 0.00 0.10 0.00 94 1011.1
20260507053318 5 307 0.0 1.6 0.00 0.10 0.00 94 1011.4
20260507052818 5 307 0.0 1.6 0.00 0.10 0.00 94 1011.2
20260507052315 5 307 1.6 4.8 0.00 0.10 0.00 94 1010.9
20260507051814 5 307 1.6 4.8 0.00 0.10 0.00 94 1011.0
20260507051315 5 307 1.6 4.8 0.00 0.10 0.00 95 1011.2
20260507050815 5 307 0.0 3.2 0.00 0.10 0.00 94 1011.6
20260507050315 6 307 0.0 3.2 0.00 0.10 0.00 94 1011.5
20260507045814 6 307 1.6 4.8 0.00 0.10 0.00 94 1011.2
20260507045314 6 307 1.6 4.8 0.00 0.13 0.00 94 1011.2
20260507044814 6 298 1.6 4.8 0.00 0.13 0.00 94 1011.5
20260507044315 6 301 0.0 1.6 0.00 0.13 0.00 94 1011.7
20260507042812 6 301 0.0 3.2 0.00 0.15 0.00 94 1011.4
20260507042312 6 301 0.0 3.2 0.00 0.18 0.00 94 1011.5
20260507041812 6 301 0.0 1.6 0.00 0.18 0.00 94 1011.6
20260507041312 6 301 0.0 3.2 0.00 0.18 0.00 94 1011.6
20260507040812 6 301 1.6 3.2 0.00 0.20 0.00 94 1011.5
20260507040311 6 301 0.0 3.2 0.00 0.20 0.00 94 1011.6
20260507035809 6 301 0.0 1.6 0.00 0.23 0.20 94 1011.5
20260507034810 6 301 0.0 3.2 0.00 0.23 0.20 94 1011.5
20260507034309 6 301 0.0 1.6 0.00 0.25 0.20 94 1011.6
20260507033809 6 301 0.0 3.2 0.00 0.25 0.20 94 1011.7
20260507032810 6 301 1.6 4.8 0.00 0.25 0.20 94 1011.8
20260507032309 6 300 1.6 3.2 0.00 0.28 0.20 94 1011.9
20260507031811 6 300 1.6 3.2 0.00 0.28 0.20 94 1011.9
20260507031310 6 300 1.6 3.2 0.00 0.28 0.20 94 1011.8
20260507030809 6 300 0.0 3.2 0.00 0.28 0.20 94 1011.8
20260507030309 6 300 0.0 3.2 0.00 0.28 0.20 94 1011.9
20260507025310 6 300 1.6 3.2 0.00 0.28 0.20 94 1011.8
20260507024310 6 300 0.0 3.2 0.00 0.28 0.20 94 1011.9
20260507023810 6 300 1.6 3.2 0.00 0.28 0.20 94 1011.9
20260507023309 6 300 1.6 3.2 0.00 0.28 0.20 94 1011.9
20260507022810 6 300 0.0 3.2 0.00 0.28 0.20 94 1011.9
20260507022309 6 300 0.0 1.6 0.00 0.28 0.20 94 1011.8
20260507021810 6 300 0.0 3.2 0.00 0.28 0.20 94 1012.0
20260507021309 6 300 0.0 3.2 0.00 0.28 0.20 94 1011.9
20260507020309 6 300 0.0 1.6 0.00 0.28 0.20 94 1011.9
20260507015809 6 300 0.0 3.2 0.00 0.28 0.20 94 1011.8
20260507015309 6 300 1.6 3.2 0.00 0.28 0.20 94 1011.8
20260507014807 6 300 0.0 4.8 0.00 0.28 0.20 94 1011.9
20260507013305 7 300 1.6 4.8 0.00 0.28 0.20 94 1012.2
20260507011305 7 274 0.0 3.2 0.00 0.28 0.20 94 1011.9
20260507010805 7 274 1.6 3.2 0.00 0.28 0.20 94 1011.8
20260507010305 7 274 1.6 3.2 0.00 0.28 0.20 94 1011.7
20260507005306 7 274 1.6 3.2 0.00 0.28 0.20 94 1011.6
20260507004805 7 274 1.6 3.2 0.00 0.28 0.20 94 1011.5
20260507004305 7 274 1.6 3.2 0.00 0.28 0.20 94 1011.5
20260507003305 7 274 1.6 4.8 0.00 0.28 0.20 94 1011.2
20260507002805 7 274 1.6 4.8 0.00 0.28 0.20 94 1011.3
20260507002306 7 273 1.6 6.4 0.00 0.28 0.20 94 1011.4
20260507001805 7 273 1.6 6.4 0.00 0.28 0.20 94 1011.0
20260507001304 7 292 1.6 6.4 0.00 0.28 0.20 94 1010.7
20260507000803 7 265 1.6 6.4 0.00 0.28 0.20 94 1010.9
20260507000303 7 292 1.6 4.8 0.00 0.28 0.20 94 1010.6
20260506235306 7 292 0.0 3.2 0.00 0.28 0.20 94 1010.1
20260506234803 7 292 1.6 3.2 0.00 0.28 0.20 94 1010.3
20260506234304 7 292 1.6 3.2 0.00 0.28 0.20 94 1010.0
20260506233303 7 292 0.0 3.2 0.00 0.28 0.20 94 1010.2